Bennington, VT

12:15 PM EDT on July 27, 2017 (GMT -0400)
Morse State

Weather History for KDDH - July, 2013

Change the Weather History Date:

Saturday, July 6, 2013

  Actual Average Record
Temperature  
Mean Temperature 75 °F 68 °F  
Max Temperature 84 °F 79 °F 91 °F (2010)
Min Temperature 65 °F 57 °F 45 °F (2000)
Degree Days  
Heating Degree Days 0 1  
Month to date heating degree days 0 6  
Since 1 June heating degree days 100 103  
Since 1 July heating degree days 0 6  
Cooling Degree Days 10 4  
Month to date cooling degree days 72 23  
Year to date cooling degree days 202 95  
Since 1 June cooling degree days 170 81  
Growing Degree Days 26 (Base 50)    
Moisture  
Dew Point 67 °F    
Average Humidity 74    
Maximum Humidity 100    
Minimum Humidity 47    
Precipitation  
Precipitation 0.00 in 0.13 in 0.57 in (2011)
Month to date precipitation 1.02 0.78  
Year to date precipitation 22.78 19.98  
Sea Level Pressure  
Sea Level Pressure 30.10 in    
Wind  
Wind Speed 3 mph (West)    
Max Wind Speed 13 mph    
Max Gust Speed 20 mph    
Visibility 7 miles    
Events      
T = Trace of Precipitation, MM = Missing Value Source: NWS Daily Summary

Daily Weather History Graph

Daily Weather History Graph

Search for Another Location

Airport or City:

Trip Planner

Search our weather history database for the weather conditions in past years. The results will help you decide how hot, cold, wet, or windy it might be!

Date:

Astronomy

Jul. 06, 2013 Rise Set
Actual Time 5:21 AM EDT 8:34 PM EDT
Civil Twilight 4:46 AM EDT 9:08 PM EDT
Nautical Twilight 4:01 AM EDT 9:53 PM EDT
Astronomical Twilight 3:07 AM EDT 10:47 PM EDT
Moon 4:06 AM EDT (7/6) 7:12 PM EDT (7/6)
Length of Visible Light 16h 22m
Length of Day
15h 12m
Waning Crescent, 2% of the Moon is Illuminated
Jul 6
Waning Crescent
Jul 8
New
Jul 15
First Quarter
Jul 22
Full
Jul 29
Last Quarter

Hourly Weather History & Observations

Time (EDT) Temp. Heat Index Dew Point Humidity Pressure Visibility Wind Dir Wind Speed Gust Speed Precip Events Conditions
12:03 AM 71.6 °F - 69.8 °F 94% 30.12 in 3.0 mi Calm Calm - N/A   Scattered Clouds
12:05 AM 71.6 °F - 69.8 °F 94% 30.12 in 2.0 mi Calm Calm - N/A   Mostly Cloudy
12:13 AM 69.8 °F - 69.8 °F 100% 30.12 in 1.2 mi Calm Calm - N/A   Mostly Cloudy
12:22 AM 71.6 °F - 69.8 °F 94% 30.11 in 3.0 mi Calm Calm - N/A   Mostly Cloudy
12:33 AM 71.6 °F - 69.8 °F 94% 30.11 in 8.0 mi Calm Calm - N/A   Mostly Cloudy
12:54 AM 71.1 °F - 69.1 °F 93% 30.11 in 6.0 mi NW 6.9 mph - N/A   Scattered Clouds
1:54 AM 72.0 °F - 70.0 °F 93% 30.10 in 10.0 mi Calm Calm - N/A   Scattered Clouds
2:54 AM 71.1 °F - 69.1 °F 93% 30.10 in 8.0 mi Calm Calm - N/A   Partly Cloudy
3:54 AM 70.0 °F - 69.1 °F 97% 30.10 in 6.0 mi Calm Calm - N/A   Mostly Cloudy
4:54 AM 69.1 °F - 68.0 °F 96% 30.10 in 2.5 mi Calm Calm - N/A   Mostly Cloudy
5:01 AM 69.8 °F - 66.2 °F 88% 30.12 in 3.0 mi Calm Calm - N/A   Scattered Clouds
5:08 AM 69.8 °F - 66.2 °F 88% 30.12 in 2.5 mi Calm Calm - N/A   Scattered Clouds
5:17 AM 69.8 °F - 68.0 °F 94% 30.12 in 4.0 mi Calm Calm - N/A   Scattered Clouds
5:25 AM 69.8 °F - 66.2 °F 88% 30.12 in 2.0 mi Calm Calm - N/A   Partly Cloudy
5:37 AM 68.0 °F - 66.2 °F 94% 30.12 in 0.8 mi Calm Calm - 0.01 in   Partly Cloudy
5:49 AM 68.0 °F - 66.2 °F 94% 30.13 in 1.0 mi SSE 3.5 mph - 0.01 in   Mostly Cloudy
5:54 AM 69.1 °F - 66.9 °F 93% 30.11 in 7.0 mi Calm Calm - 0.01 in   Mostly Cloudy
6:18 AM 69.8 °F - 68.0 °F 94% 30.14 in 6.0 mi Calm Calm - N/A   Overcast
6:54 AM 72.0 °F - 68.0 °F 87% 30.12 in 10.0 mi Calm Calm - N/A   Mostly Cloudy
7:54 AM 75.0 °F - 70.0 °F 84% 30.12 in 10.0 mi Calm Calm - N/A   Mostly Cloudy
8:54 AM 75.0 °F - 70.0 °F 84% 30.12 in 10.0 mi Calm Calm - N/A   Overcast
9:54 AM 77.0 °F - 70.0 °F 79% 30.12 in 10.0 mi NW 3.5 mph - N/A   Overcast
10:34 AM 78.8 °F - 69.8 °F 74% 30.13 in 10.0 mi NW 4.6 mph - N/A   Overcast
10:54 AM 79.0 °F - 70.0 °F 74% 30.11 in 10.0 mi Calm Calm - N/A   Overcast
11:13 AM 78.8 °F - 69.8 °F 74% 30.12 in 10.0 mi Variable 5.8 mph - N/A   Mostly Cloudy
11:54 AM 79.0 °F - 68.0 °F 69% 30.12 in 10.0 mi NW 8.1 mph - N/A   Mostly Cloudy
12:54 PM 82.0 °F 84.1 °F 66.0 °F 58% 30.11 in 10.0 mi West 8.1 mph 17.3 mph N/A   Partly Cloudy
1:54 PM 82.0 °F 83.8 °F 64.9 °F 56% 30.10 in 10.0 mi West 9.2 mph - N/A   Partly Cloudy
2:54 PM 82.9 °F 84.4 °F 64.0 °F 53% 30.09 in 10.0 mi Variable 5.8 mph - N/A   Clear
3:54 PM 82.9 °F 83.7 °F 62.1 °F 49% 30.07 in 10.0 mi WSW 8.1 mph - N/A   Clear
4:54 PM 84.0 °F 84.5 °F 62.1 °F 47% 30.06 in 10.0 mi Variable 5.8 mph - N/A   Clear
5:54 PM 82.0 °F 82.7 °F 61.0 °F 49% 30.05 in 10.0 mi WNW 8.1 mph - N/A   Clear
6:54 PM 81.0 °F 82.2 °F 63.0 °F 54% 30.03 in 10.0 mi West 4.6 mph - N/A   Clear
7:54 PM 79.0 °F - 64.9 °F 62% 30.04 in 10.0 mi Variable 3.5 mph - N/A   Clear
8:54 PM 72.0 °F - 66.9 °F 84% 30.04 in 7.0 mi SSE 3.5 mph - N/A   Clear
9:54 PM 69.1 °F - 66.0 °F 90% 30.06 in 10.0 mi Calm Calm - N/A   Clear
10:54 PM 68.0 °F - 64.9 °F 90% 30.07 in 8.0 mi Calm Calm - N/A   Clear
11:54 PM 66.0 °F - 64.0 °F 93% 30.07 in 6.0 mi Calm Calm - N/A   Clear